GW3896 Weather Reports


time (UTC)temp
C
wind
direction
speed
KPH
gust
KPH
rain 1hr
cm
rain 24hr
cm
rain mn
cm
humidity
%
barometer
mb
20260510220438 21 20 3.2 3.2 0.00 0.13 0.13 55 1016.0
20260510215934 21 344 3.2 3.2 0.00 0.13 0.13 56 1016.0
20260510215432 21 68 6.4 9.7 0.00 0.13 0.13 56 1015.9
20260510214930 20 35 8.0 11.3 0.00 0.13 0.13 57 1016.0
20260510214427 21 41 1.6 3.2 0.00 0.13 0.13 57 1015.9
20260510213924 21 70 6.4 8.0 0.00 0.13 0.13 56 1015.8
20260510213420 21 88 4.8 4.8 0.00 0.13 0.13 56 1015.9
20260510212916 20 249 0.0 0.0 0.00 0.13 0.13 58 1015.8
20260510212414 20 331 3.2 3.2 0.00 0.13 0.13 61 1015.8
20260510211910 20 8 3.2 3.2 0.00 0.13 0.13 60 1015.7
20260510211408 21 44 4.8 4.8 0.00 0.13 0.13 58 1015.6
20260510210907 21 58 1.6 3.2 0.00 0.13 0.13 57 1015.7
20260510210402 21 345 0.0 1.6 0.00 0.13 0.13 58 1015.6
20260510205901 21 301 4.8 8.0 0.00 0.13 0.13 56 1015.5
20260510205357 21 312 3.2 3.2 0.00 0.13 0.13 55 1015.6
20260510204853 21 331 4.8 8.0 0.00 0.13 0.13 58 1015.6
20260510204350 20 16 3.2 4.8 0.00 0.13 0.13 58 1015.5
20260510203846 20 336 3.2 4.8 0.00 0.13 0.13 58 1015.8
20260510203345 20 238 1.6 1.6 0.00 0.13 0.13 59 1015.6
20260510202839 21 187 0.0 1.6 0.00 0.13 0.13 57 1015.7
20260510202335 21 247 0.0 0.0 0.00 0.13 0.13 57 1015.6
20260510201832 22 230 0.0 0.0 0.00 0.13 0.13 57 1015.4
20260510201329 22 261 1.6 3.2 0.00 0.13 0.13 54 1015.5
20260510200826 20 99 4.8 4.8 0.00 0.13 0.13 56 1015.6
20260510200324 21 250 0.0 0.0 0.00 0.13 0.13 56 1015.7
20260510195819 21 260 6.4 8.0 0.00 0.13 0.13 57 1015.8
20260510195316 21 138 4.8 8.0 0.00 0.13 0.13 58 1015.8
20260510194816 21 141 3.2 3.2 0.00 0.13 0.13 57 1015.7
20260510194313 21 160 1.6 1.6 0.00 0.13 0.13 58 1016.1
20260510193809 21 259 3.2 3.2 0.00 0.13 0.13 57 1015.9
20260510193304 21 276 3.2 3.2 0.00 0.13 0.13 59 1016.1
20260510192800 21 239 4.8 4.8 0.00 0.13 0.13 58 1016.1
20260510192255 21 57 1.6 1.6 0.00 0.13 0.13 59 1016.1
20260510191751 20 52 8.0 9.7 0.00 0.13 0.13 61 1016.1
20260510191247 20 198 1.6 1.6 0.00 0.13 0.13 61 1016.0
20260510190746 19 315 1.6 1.6 0.00 0.13 0.13 64 1016.1
20260510190242 20 52 8.0 11.3 0.00 0.13 0.13 63 1016.2
20260510185739 20 292 3.2 3.2 0.00 0.13 0.13 63 1016.4
20260510185237 20 256 1.6 1.6 0.00 0.13 0.13 65 1016.2
20260510184733 19 274 1.6 3.2 0.00 0.13 0.13 66 1016.1
20260510184230 20 272 4.8 4.8 0.00 0.13 0.13 63 1016.4
20260510183725 19 328 3.2 4.8 0.00 0.13 0.13 65 1016.5
20260510183220 18 14 3.2 3.2 0.00 0.13 0.13 69 1016.3
20260510182717 19 37 8.0 11.3 0.00 0.13 0.13 70 1016.1
20260510182213 18 256 1.6 3.2 0.00 0.13 0.13 69 1015.8
20260510181710 18 345 4.8 8.0 0.00 0.13 0.13 70 1016.0
20260510181207 19 54 4.8 8.0 0.00 0.13 0.13 70 1016.1
20260510180702 18 118 4.8 4.8 0.00 0.13 0.13 71 1015.8
20260510180200 18 32 4.8 4.8 0.00 0.13 0.13 71 1015.7
20260510175656 18 342 1.6 3.2 0.00 0.13 0.13 69 1015.9
20260510175152 18 348 3.2 4.8 0.00 0.13 0.13 73 1016.0
20260510174649 18 294 4.8 4.8 0.00 0.13 0.13 71 1016.0
20260510174147 18 45 4.8 4.8 0.00 0.13 0.13 75 1016.0
20260510173643 18 69 4.8 8.0 0.00 0.13 0.13 72 1016.0
20260510173139 18 37 1.6 3.2 0.00 0.13 0.13 73 1015.9
20260510172634 18 293 3.2 3.2 0.00 0.13 0.13 75 1015.6
20260510172131 17 26 1.6 3.2 0.00 0.13 0.13 78 1016.0
20260510171628 17 295 1.6 3.2 0.00 0.13 0.13 81 1015.9
20260510171126 18 29 4.8 8.0 0.00 0.13 0.13 80 1015.9
20260510170621 18 47 4.8 8.0 0.00 0.13 0.13 81 1015.9
20260510170118 17 358 1.6 3.2 0.00 0.13 0.13 82 1015.9
20260510165614 17 308 1.6 1.6 0.00 0.13 0.13 83 1015.8
20260510165110 17 50 3.2 3.2 0.00 0.13 0.13 83 1016.1
20260510164608 17 320 0.0 1.6 0.00 0.13 0.13 84 1016.1
20260510164104 17 287 4.8 8.0 0.00 0.13 0.13 82 1016.0
20260510163559 17 51 4.8 9.7 0.00 0.13 0.13 84 1016.0
20260510163056 17 251 1.6 1.6 0.00 0.13 0.13 86 1015.9
20260510162550 17 319 4.8 4.8 0.00 0.13 0.13 87 1015.9
20260510162047 16 282 3.2 3.2 0.00 0.13 0.13 89 1015.9
20260510161543 16 5 1.6 1.6 0.00 0.13 0.13 88 1015.9
20260510161040 16 270 0.0 0.0 0.00 0.13 0.13 89 1015.7
20260510160538 16 270 0.0 0.0 0.00 0.13 0.13 88 1015.4
20260510160037 16 102 1.6 1.6 0.00 0.13 0.13 88 1015.6
20260510155534 16 268 1.6 1.6 0.00 0.13 0.13 87 1015.4
20260510155030 16 305 1.6 1.6 0.00 0.13 0.13 89 1015.4
20260510154526 17 330 3.2 3.2 0.00 0.13 0.13 90 1015.3
20260510154021 16 282 1.6 1.6 0.00 0.13 0.13 91 1015.3
20260510153516 16 44 1.6 1.6 0.00 0.13 0.13 92 1015.0
20260510153013 16 36 1.6 1.6 0.00 0.13 0.13 95 1015.2
20260510152510 16 358 3.2 3.2 0.00 0.13 0.13 96 1015.2
20260510152000 15 264 0.0 0.0 0.00 0.13 0.13 97 1015.3
20260510151457 15 265 0.0 1.6 0.00 0.13 0.13 97 1015.2
20260510150954 15 310 0.0 0.0 0.00 0.13 0.13 97 1015.4
20260510150449 15 314 0.0 0.0 0.00 0.13 0.13 98 1015.2
20260510145945 15 314 0.0 0.0 0.00 0.13 0.13 97 1015.0
20260510145442 15 313 1.6 1.6 0.18 0.13 0.13 97 1015.0
20260510144939 15 314 0.0 0.0 0.18 0.13 0.13 97 1014.9
20260510144436 15 315 0.0 0.0 0.00 0.10 0.10 96 1014.7
20260510143931 15 308 0.0 0.0 0.13 0.10 0.10 95 1014.7
20260510143426 15 324 0.0 0.0 0.13 0.10 0.10 94 1014.5
20260510142924 15 273 0.0 0.0 0.13 0.10 0.10 93 1014.9
20260510142421 15 315 0.0 0.0 0.00 0.08 0.08 92 1014.9
20260510141917 16 243 0.0 0.0 0.48 0.08 0.08 91 1015.2
20260510141414 16 266 0.0 0.0 0.48 0.08 0.08 89 1014.8
20260510140912 16 316 1.6 3.2 0.00 0.00 0.00 87 1015.4
20260510140408 16 264 9.7 11.3 0.00 0.00 0.00 83 1014.8
20260510135907 16 241 6.4 8.0 0.00 0.00 0.00 82 1014.5
20260510135403 17 276 3.2 3.2 0.00 0.00 0.00 82 1014.3
20260510134900 17 233 4.8 8.0 0.00 0.00 0.00 80 1014.4
20260510134357 17 260 9.7 11.3 0.00 0.00 0.00 81 1014.3
20260510133853 17 244 8.0 9.7 0.00 0.00 0.00 81 1014.5
20260510133349 16 249 3.2 3.2 0.00 0.00 0.00 83 1014.6
20260510132845 16 249 6.4 8.0 0.00 0.00 0.00 83 1014.7
20260510132343 16 245 8.0 11.3 0.00 0.00 0.00 84 1014.4
20260510131840 16 209 1.6 1.6 0.00 0.00 0.00 85 1014.2
20260510131337 16 261 1.6 3.2 0.00 0.00 0.00 86 1014.2
20260510130834 16 245 1.6 1.6 0.00 0.00 0.00 86 1014.1
20260510130331 15 248 6.4 8.0 0.00 0.00 0.00 86 1014.3
20260510125827 15 305 6.4 8.0 0.00 0.00 0.00 86 1014.1
20260510125323 15 265 1.6 3.2 0.00 0.00 0.00 87 1014.1
20260510124820 15 243 1.6 1.6 0.00 0.00 0.00 88 1014.1
20260510124318 15 262 4.8 4.8 0.00 0.00 0.00 88 1014.0
20260510123813 15 268 1.6 1.6 0.00 0.00 0.00 88 1013.9
20260510123309 15 240 1.6 1.6 0.00 0.00 0.00 88 1013.9
20260510122805 15 249 0.0 1.6 0.00 0.00 0.00 88 1013.8
20260510122301 15 263 1.6 3.2 0.00 0.00 0.00 88 1014.0
20260510121758 15 271 1.6 1.6 0.00 0.00 0.00 88 1014.0
20260510121256 15 280 4.8 8.0 0.00 0.00 0.00 88 1013.7
20260510120753 15 270 1.6 3.2 0.00 0.00 0.00 87 1013.6
20260510120249 15 253 1.6 3.2 0.00 0.00 0.00 88 1013.5
20260510115745 15 256 0.0 1.6 0.00 0.00 0.00 89 1013.8
20260510115243 15 262 1.6 1.6 0.00 0.00 0.00 89 1013.6
20260510114738 15 248 0.0 1.6 0.00 0.00 0.00 89 1013.5
20260510114236 15 265 1.6 3.2 0.00 0.00 0.00 89 1013.3
20260510113731 15 291 3.2 3.2 0.00 0.00 0.00 89 1013.4
20260510113228 14 247 0.0 1.6 0.00 0.00 0.00 90 1013.3
20260510112724 14 267 1.6 1.6 0.00 0.00 0.00 90 1013.1
20260510112221 14 274 3.2 3.2 0.00 0.00 0.00 90 1012.8
20260510111717 14 246 3.2 3.2 0.00 0.00 0.00 91 1012.8
20260510111214 13 287 4.8 4.8 0.00 0.00 0.00 94 1012.5
20260510110708 13 270 0.0 0.0 0.00 0.00 0.00 95 1012.5
20260510110207 13 267 0.0 0.0 0.00 0.00 0.00 96 1012.3
20260510105706 12 248 0.0 0.0 0.00 0.00 0.00 96 1012.4
20260510105201 12 246 0.0 0.0 0.00 0.00 0.00 96 1012.1
20260510104658 12 239 0.0 0.0 0.00 0.00 0.00 96 1012.1
20260510104155 12 243 0.0 0.0 0.00 0.00 0.00 96 1012.1
20260510103652 12 265 0.0 0.0 0.00 0.00 0.00 96 1012.2
20260510103148 12 266 0.0 0.0 0.00 0.00 0.00 96 1012.1
20260510102643 12 244 0.0 0.0 0.00 0.00 0.00 96 1012.3
20260510102139 12 243 0.0 0.0 0.00 0.00 0.00 95 1011.9
20260510101637 12 244 0.0 0.0 0.00 0.00 0.00 95 1011.8
20260510101135 12 232 0.0 0.0 0.00 0.00 0.00 95 1012.1
20260510100631 12 267 0.0 0.0 0.00 0.00 0.00 94 1011.5
20260510100128 12 264 0.0 0.0 0.00 0.00 0.00 94 1011.6
20260510095624 12 249 0.0 0.0 0.00 0.00 0.00 94 1011.6
20260510095119 12 257 0.0 0.0 0.00 0.00 0.00 94 1011.6
20260510094618 12 231 0.0 0.0 0.00 0.00 0.00 94 1011.3
20260510094114 12 277 0.0 0.0 0.00 0.00 0.00 94 1011.4
20260510093610 12 277 0.0 0.0 0.00 0.00 0.00 95 1011.3
20260510093107 12 276 0.0 0.0 0.00 0.00 0.00 94 1011.1
20260510092604 12 277 0.0 0.0 0.00 0.00 0.00 95 1011.2
20260510092103 12 277 0.0 0.0 0.00 0.00 0.00 95 1011.1
20260510091600 12 260 0.0 0.0 0.00 0.00 0.00 94 1011.1
20260510091056 12 251 0.0 0.0 0.00 0.00 0.00 94 1011.1
20260510090554 12 260 0.0 0.0 0.00 0.00 0.00 94 1010.8
20260510090049 13 246 0.0 0.0 0.00 0.00 0.00 93 1010.9
20260510085544 13 267 0.0 0.0 0.00 0.00 0.00 93 1010.9
20260510085040 13 268 0.0 0.0 0.00 0.00 0.00 93 1011.1
20260510084537 13 268 1.6 1.6 0.00 0.00 0.00 92 1011.0
20260510084034 13 268 0.0 0.0 0.00 0.00 0.00 91 1011.0
20260510083531 13 268 0.0 0.0 0.00 0.00 0.00 91 1010.9
20260510083027 13 261 4.8 4.8 0.00 0.00 0.00 91 1011.0
20260510082524 13 218 1.6 1.6 0.00 0.00 0.00 91 1010.9
20260510082019 13 249 0.0 1.6 0.00 0.00 0.00 92 1011.1
20260510081514 13 250 1.6 1.6 0.00 0.00 0.00 92 1011.0
20260510081010 13 264 0.0 0.0 0.00 0.00 0.00 91 1011.1
20260510080509 13 246 0.0 1.6 0.00 0.00 0.00 91 1011.2
20260510080006 13 267 1.6 3.2 0.00 0.00 0.00 91 1011.1
20260510075504 13 266 0.0 0.0 0.00 0.00 0.00 91 1010.8
20260510075000 13 234 0.0 1.6 0.00 0.00 0.00 91 1010.7
20260510074458 13 251 0.0 1.6 0.00 0.00 0.00 91 1010.6
20260510073953 13 251 4.8 4.8 0.00 0.00 0.00 91 1010.7
20260510073449 14 229 1.6 1.6 0.00 0.00 0.00 90 1010.5
20260510072946 13 252 3.2 3.2 0.00 0.00 0.00 91 1010.7
20260510072443 13 228 3.2 3.2 0.00 0.00 0.00 91 1010.7
20260510071938 13 258 1.6 1.6 0.00 0.00 0.00 91 1010.6
20260510071435 13 225 0.0 0.0 0.00 0.00 0.00 91 1010.8
20260510070933 13 266 0.0 0.0 0.00 0.00 0.00 91 1010.7
20260510070430 13 253 1.6 1.6 0.00 0.00 0.00 91 1010.8
20260510065926 13 277 0.0 0.0 0.00 0.00 0.00 91 1010.6
20260510065423 13 277 0.0 1.6 0.00 0.00 0.00 91 1010.8
20260510064919 13 277 1.6 3.2 0.00 0.00 0.00 91 1010.6
20260510064417 13 277 0.0 1.6 0.00 0.00 0.00 91 1010.6
20260510063913 14 277 1.6 1.6 0.00 0.00 0.00 90 1010.5
20260510063409 13 275 0.0 0.0 0.00 0.00 0.00 90 1010.8
20260510062907 14 275 0.0 0.0 0.00 0.00 0.00 90 1010.3
20260510062402 14 275 0.0 0.0 0.00 0.00 0.00 90 1010.7
20260510061857 14 276 0.0 0.0 0.00 0.00 0.00 90 1010.8
20260510061354 13 270 0.0 1.6 0.00 0.00 0.00 91 1010.9
20260510060850 14 272 0.0 0.0 0.00 0.00 0.00 90 1010.7
20260510060347 14 270 0.0 0.0 0.00 0.00 0.00 90 1010.6
20260510055843 14 289 1.6 1.6 0.00 0.00 0.00 90 1010.3
20260510055342 14 268 0.0 1.6 0.00 0.00 0.00 89 1010.6
20260510054836 14 274 0.0 1.6 0.00 0.00 0.00 89 1010.6
20260510054332 15 274 0.0 1.6 0.00 0.00 0.00 87 1010.9
20260510053827 15 274 0.0 1.6 0.00 0.00 0.00 87 1010.7
20260510053322 15 274 1.6 1.6 0.00 0.00 0.00 86 1010.7
20260510052819 15 260 1.6 1.6 0.00 0.00 0.00 86 1010.7
20260510052316 15 274 0.0 1.6 0.00 0.00 0.00 85 1010.8
20260510051812 16 276 0.0 0.0 0.00 0.00 0.00 84 1011.0
20260510051309 16 240 1.6 1.6 0.00 0.00 0.00 83 1010.9
20260510050806 16 297 1.6 4.8 0.00 0.00 0.00 83 1010.7
20260510050303 16 270 4.8 8.0 0.00 0.00 0.00 82 1010.8
20260510045800 16 254 1.6 1.6 0.00 0.00 0.00 82 1010.8
20260510045256 16 245 3.2 3.2 0.00 0.00 0.00 82 1011.0
20260510044754 16 252 4.8 4.8 0.00 0.00 0.00 82 1011.1
20260510044250 16 232 6.4 8.0 0.00 0.00 0.00 82 1010.7
20260510043746 16 260 3.2 3.2 0.00 0.00 0.00 82 1010.7
20260510043242 16 255 3.2 3.2 0.00 0.00 0.00 81 1010.6
20260510042740 16 268 6.4 8.0 0.00 0.00 0.00 81 1010.8
20260510042235 16 225 3.2 4.8 0.00 0.00 0.00 81 1010.6
20260510041732 17 238 4.8 4.8 0.00 0.00 0.00 80 1010.8
20260510041230 17 229 6.4 8.0 0.00 0.00 0.00 80 1010.7
20260510040726 17 262 6.4 8.0 0.00 0.00 0.00 80 1010.7
20260510040223 17 256 6.4 8.0 0.00 0.00 0.00 80 1010.6
20260510035719 17 243 4.8 4.8 0.00 0.38 0.38 80 1010.6
20260510035215 17 258 3.2 3.2 0.00 0.38 0.38 80 1010.8
20260510034711 17 239 3.2 3.2 0.00 0.38 0.38 80 1010.7
20260510034209 17 230 0.0 1.6 0.00 0.38 0.38 80 1010.7
20260510033704 17 278 6.4 9.7 0.00 0.38 0.38 80 1010.8
20260510033203 17 227 4.8 8.0 0.00 0.38 0.38 80 1010.6
20260510032653 17 229 3.2 3.2 0.00 0.38 0.38 80 1010.6
20260510032148 16 240 1.6 1.6 0.00 0.38 0.38 80 1010.6
20260510031643 16 278 4.8 4.8 0.00 0.38 0.38 80 1010.4
20260510031140 16 238 1.6 3.2 0.00 0.38 0.38 80 1010.5
20260510030634 16 244 1.6 1.6 0.00 0.38 0.38 80 1010.4
20260510030132 17 218 1.6 1.6 0.00 0.38 0.38 80 1010.3
20260510025629 17 198 3.2 3.2 0.00 0.38 0.38 80 1010.2
20260510025126 17 242 1.6 1.6 0.00 0.38 0.38 79 1010.3
20260510024623 17 243 4.8 4.8 0.00 0.38 0.38 78 1010.4
20260510024119 17 246 1.6 1.6 0.00 0.38 0.38 78 1010.2
20260510023615 17 196 1.6 1.6 0.00 0.38 0.38 78 1010.2
20260510023113 17 244 1.6 1.6 0.00 0.38 0.38 78 1010.3
20260510022613 17 233 0.0 0.0 0.00 0.38 0.38 78 1010.1
20260510022108 17 220 0.0 1.6 0.00 0.38 0.38 77 1009.9
20260510021605 17 247 1.6 1.6 0.00 0.38 0.38 78 1010.3
20260510021102 17 232 0.0 1.6 0.00 0.38 0.38 77 1010.1
20260510020555 17 260 3.2 4.8 0.00 0.38 0.38 77 1010.1
20260510020051 17 223 1.6 1.6 0.00 0.38 0.38 76 1009.6
20260510015547 17 228 1.6 1.6 0.00 0.38 0.38 76 1010.0
20260510015043 17 248 1.6 1.6 0.00 0.38 0.38 76 1009.6
20260510014534 17 213 1.6 3.2 0.00 0.38 0.38 75 1009.6
20260510014032 17 252 1.6 3.2 0.00 0.38 0.38 75 1009.5
20260510013526 18 212 4.8 8.0 0.00 0.38 0.38 75 1009.6
20260510013022 18 228 1.6 1.6 0.00 0.38 0.38 75 1009.2
20260510012522 18 234 0.0 1.6 0.00 0.38 0.38 74 1009.1
20260510012018 18 212 1.6 1.6 0.00 0.38 0.38 74 1009.0
20260510011518 18 242 3.2 3.2 0.00 0.38 0.38 73 1009.1
20260510011014 18 233 0.0 1.6 0.00 0.38 0.38 73 1009.0
20260510010511 18 192 1.6 1.6 0.00 0.38 0.38 72 1009.0
20260510010008 18 229 0.0 0.0 0.00 0.38 0.38 72 1009.0
20260510005504 18 228 1.6 1.6 0.00 0.38 0.38 72 1008.6
20260510005002 18 240 1.6 1.6 0.00 0.38 0.38 72 1008.8
20260510004459 18 223 0.0 0.0 0.00 0.38 0.38 72 1008.7
20260510003957 18 213 0.0 1.6 0.00 0.38 0.38 71 1008.6
20260510003453 18 216 0.0 1.6 0.00 0.38 0.38 70 1008.4
20260510002948 19 238 0.0 1.6 0.00 0.38 0.38 70 1008.5
20260510002444 19 226 0.0 0.0 0.00 0.38 0.38 69 1008.4
20260510001941 20 236 1.6 3.2 0.00 0.38 0.38 68 1008.4
20260510001438 20 249 4.8 8.0 0.00 0.38 0.38 67 1008.2
20260510000936 20 200 4.8 8.0 0.00 0.38 0.38 67 1008.4
20260510000433 20 235 1.6 1.6 0.00 0.38 0.38 66 1008.4
20260509235929 20 225 1.6 1.6 0.00 0.38 0.38 65 1008.3
20260509235426 20 231 3.2 3.2 0.00 0.38 0.38 65 1008.2
20260509234922 20 212 1.6 3.2 0.00 0.38 0.38 64 1008.2
20260509234419 20 263 4.8 4.8 0.00 0.38 0.38 64 1008.3
20260509233917 21 229 4.8 4.8 0.00 0.38 0.38 63 1008.0
20260509233414 21 243 3.2 3.2 0.00 0.38 0.38 63 1008.2
20260509232910 21 249 9.7 11.3 0.00 0.38 0.38 62 1007.9
20260509232403 21 245 3.2 4.8 0.00 0.38 0.38 61 1008.1
20260509231858 21 143 4.8 8.0 0.00 0.38 0.38 60 1008.0
20260509231355 22 254 6.4 8.0 0.00 0.38 0.38 60 1008.0
20260509230853 22 200 3.2 4.8 0.00 0.38 0.38 60 1007.8
20260509230350 22 259 3.2 3.2 0.00 0.38 0.38 60 1007.9
20260509225845 22 213 4.8 9.7 0.00 0.38 0.38 60 1007.8
20260509225342 22 246 3.2 4.8 0.00 0.38 0.38 59 1008.0
20260509224838 22 226 1.6 3.2 0.00 0.38 0.38 59 1008.2
20260509224334 22 260 8.0 9.7 0.00 0.38 0.38 58 1007.9
20260509223831 22 241 3.2 3.2 0.00 0.38 0.38 59 1008.2
20260509223327 22 250 3.2 3.2 0.00 0.38 0.38 60 1008.5
20260509222824 22 230 3.2 4.8 0.00 0.38 0.38 58 1008.3
20260509222320 22 240 3.2 3.2 0.00 0.38 0.38 58 1008.2
20260509221815 22 272 9.7 11.3 0.00 0.38 0.38 57 1008.5
20260509221313 22 229 4.8 8.0 0.00 0.38 0.38 57 1008.5
20260509220808 22 199 6.4 9.7 0.00 0.38 0.38 57 1008.4